This demonstration page uses our WeatherBlox Daily Observations layout. Learn more.

Left ArrowRight Arrow

53.62937, 11.41316

Hourly Observations for December 23, 2018

Temp ( °F °C ) Dew Point ( °F °C ) Humidity (%) Winds ( mph kmh ) Pressure ( in mb ) Visibility ( mi km ) Precip ( " mm )
6:50 am 06:50 Mostly Cloudy 45 7 43 6 93 93 SW 7 11 29.94 1014 30 48 N/A
7:20 am 07:20 Mostly Cloudy 45 7 32 0 61 61 SW 9 15 29.94 1014 30 48 N/A
7:50 am 07:50 Mostly Cloudy 45 7 43 6 93 93 SW 9 15 29.94 1014 30 48 N/A
8:20 am 08:20 Mostly Cloudy 45 7 43 6 93 93 SW 12 19 29.94 1014 30 48 N/A
8:50 am 08:50 Partly Cloudy 45 7 41 5 87 87 SW 13 20 29.94 1014 30 48 N/A
9:20 am 09:20 Mostly Cloudy 45 7 43 6 93 93 SW 12 19 29.97 1015 30 48 N/A
9:50 am 09:50 Mostly Cloudy with Light Showers 45 7 43 6 93 93 SW 14 22 29.94 1014 4 7 N/A
10:20 am 10:20 Mostly Cloudy with Light Showers 45 7 43 6 93 93 SW 13 20 29.97 1015 4 7 N/A
10:50 am 10:50 Mostly Cloudy with Showers Nearby 45 7 43 6 93 93 WSW 10 17 29.94 1014 6 9 N/A
11:20 am 11:20 Partly Cloudy with Showers Nearby 45 7 41 5 87 87 SW 12 19 29.94 1014 30 48 N/A
11:50 am 11:50 Mostly Cloudy with Showers Nearby 45 7 43 6 93 93 SW 12 19 29.94 1014 30 48 N/A
12:20 pm 12:20 Mostly Cloudy 45 7 43 6 93 93 SW 13 20 29.94 1014 30 48 N/A
12:50 pm 12:50 Mostly Cloudy with Showers Nearby 45 7 43 6 93 93 SW 12 19 29.91 1013 30 48 N/A
1:20 pm 13:20 Mostly Cloudy with Light Showers 45 7 43 6 93 93 WSW 6 9 29.91 1013 6 9 N/A
1:50 pm 13:50 Mostly Cloudy with Light Showers 45 7 43 6 93 93 WSW 5 7 29.91 1013 6 9 N/A
2:20 pm 14:20 Mostly Cloudy with Light Showers 45 7 43 6 93 93 WSW 8 13 29.91 1013 5 8 N/A
2:50 pm 14:50 Mostly Cloudy 45 7 43 6 93 93 WSW 6 9 29.91 1013 30 48 N/A
3:20 pm 15:20 Mostly Cloudy 45 7 43 6 93 93 WSW 6 9 29.91 1013 30 48 N/A
3:50 pm 15:50 Mostly Cloudy with Showers 45 7 43 6 93 93 WSW 5 7 29.91 1013 3 5 N/A
4:20 pm 16:20 Mostly Cloudy 43 6 41 5 93 93 WSW 7 11 29.91 1013 6 9 N/A
4:50 pm 16:50 Mostly Cloudy 43 6 41 5 93 93 WSW 5 7 29.91 1013 6 9 N/A
5:20 pm 17:20 Mostly Cloudy with Light Showers 43 6 41 5 93 93 SW 2 4 29.88 1012 30 48 N/A
5:50 pm 17:50 Mostly Cloudy 43 6 41 5 93 93 VRB 2 4 29.88 1012 30 48 N/A
6:20 pm 18:20 Mostly Cloudy 43 6 41 5 93 93 WSW 3 6 29.88 1012 30 48 N/A
6:50 pm 18:50 Mostly Cloudy with Light Showers 43 6 41 5 93 93 WSW 2 4 29.88 1012 6 9 N/A

Powered by AerisWeather